Miscellaneous Local Product
Issued by NWS Hastings, NE

Home | Current Version | Previous Version | Graphics & Text | Print | Product List | Glossary On
Versions: 1 2 3 4 5 6 7 8 9 10 11 12 13 14 15 16 17 18 19 20 21 22 23 24 25 26 27 28 29 30 31 32 33 34 35 36 37 38 39 40 41 42 43 44 45 46 47 48 49 50
970
AXUS43 KGID 271302
MISGRI

GID CWA HOURLY WEATHER ROUNDUP
NATIONAL WEATHER SERVICE HASTINGS NE
800 AM CDT WED APR 27 2016

NOTE: "FAIR" INDICATES FEW OR NO CLOUDS BELOW 12,000 FEET WITH NO
SIGNIFICANT WEATHER AND/OR OBSTRUCTIONS TO VISIBILITY.

...SOUTH CENTRAL NEBRASKA...

CITY           SKY/WX    TMP DP  RH WIND       PRES   REMARKS
GRAND ISLAND   LGT RAIN  51  49  92 W15G22    29.41F FOG
HASTINGS       LGT RAIN  48  45  89 W22       29.42F
KEARNEY        CLOUDY    46  43  87 NW25G32   29.45F
ORD            HVY RAIN  48  47  96 N15       29.46S FOG
YORK           RAIN      55  55 100 S7        29.43F
AURORA         RAIN      56  56 100 S13       29.42F
LEXINGTON      LGT RAIN  45  43  91 NW18G26   29.53F
HOLDREGE       LGT RAIN  46  43  90 W15G22    29.52R
HEBRON         LGT RAIN  57  55  92 S15       29.45S

...NEBRASKA PANHANDLE...

CITY           SKY/WX    TMP DP  RH WIND       PRES   REMARKS
CHADRON        LGT RAIN  37  36  96 N10       29.82R FOG     WCI  30
ALLIANCE       CLOUDY    36  33  89 NW23      29.75R WCI  24
SCOTTSBLUFF    CLOUDY    35  30  82 NW14      29.81R WCI  26
SIDNEY         CLOUDY    33  29  85 NW24G31   29.76R WCI  20

...WESTERN AND NORTH CENTRAL NEBRASKA...

CITY           SKY/WX    TMP DP  RH WIND       PRES   REMARKS
VALENTINE      RAIN      39  36  89 N14G25    29.67F WCI  31
AINSWORTH      RAIN      41  40  97 N18G26    29.62S
ONEILL         RAIN      44  43  95 NE17G24   29.54R
BROKEN BOW     RAIN      44  43  96 N20G26    29.53S FOG
IMPERIAL       CLOUDY    38  32  79 NW23      29.69R WCI  27
NORTH PLATTE   LGT RAIN  41  39  93 NW17G26   29.60F
MCCOOK         CLOUDY    43  38  82 NW23G30   29.63S

...EASTERN NEBRASKA...

CITY           SKY/WX    TMP DP  RH WIND       PRES   REMARKS
NORFOLK        LGT RAIN  45  42  89 E17G24    29.51S FOG
SO SIOUX CITY  HVY RAIN  45  41  86 E23G29    29.60R FOG
TEKAMAH        RAIN      48  45  89 E24       29.56R
COLUMBUS       CLOUDY    50  43  76 E18G26    29.47F
ALBION         RAIN      46  45  94 E17G28    29.47F
OMAHA EPPLEY   LGT RAIN  51  49  92 E20G26    29.55R FOG
OFFUTT AFB     LGT RAIN  52  52 100 E14       29.53R VSB 1
MILLARD        LGT RAIN  52  49  90 E10G16    29.53R
LINCOLN        LGT RAIN  56  54  93 SE15      29.49R FOG
NEBRASKA CITY  CLOUDY    55  55 100 SE6       29.53R FOG
BEATRICE       LGT RAIN  58  54  89 S18       29.49R
FALLS CITY     NOT AVBL

...NORTHERN KANSAS...

CITY           SKY/WX    TMP DP  RH WIND       PRES   REMARKS
GOODLAND       CLOUDY    36  31  82 NW21      29.71R WCI  25
HILL CITY      LGT RAIN  43  40  89 NW26G38   29.59R
NORTON         RAIN      43  39  87 W17G23    29.60
PHILLIPSBURG   CLOUDY    46  45  93 NW31G43   29.52F
SMITH CENTER   MOSUNNY   45  43  93 NW26G33   29.54S
BELOIT         MOSUNNY   48  45  87 W16G26    29.53R
HAYS           CLOUDY    48  37  66 NW18      29.58S
RUSSELL        CLOUDY    49  44  83 NW16      29.54F
CONCORDIA      PTSUNNY   50  46  86 NW16G26   29.50F
SALINA         CLOUDY    55  48  77 N8        29.52S
TOPEKA         MOSUNNY   58  54  86 S8        29.54S



USA.gov is the U.S. government's official web portal to all federal, state and local government web resources and services.